Regional Weather Roundup
Issued by NWS

Home | Current Version | Previous Version | Text Only | Print | Product List | Glossary Off
Versions: 1 2 3 4 5 6 7 8 9 10 11 12 13 14 15 16 17 18 19 20 21 22 23 24 25 26 27 28 29 30 31 32 33 34 35 36 37 38 39 40 41 42 43 44 45 46 47 48 49 50

000
ASUS43 KLOT 271900
RWRIL

ILLINOIS REGIONAL WEATHER ROUNDUP
NATIONAL WEATHER SERVICE CHICAGO/ROMEOVILLE IL
200 PM CDT WED AUG 27 2014

NOTE: "FAIR" INDICATES FEW OR NO CLOUDS BELOW 12,000 FEET WITH NO
SIGNIFICANT WEATHER AND/OR OBSTRUCTIONS TO VISIBILITY.

* THESE STATIONS ARE NOT UNDER NWS QUALITY CONTROL. THEY ALSO MAY NOT
  REPORT WEATHER SUCH AS PRECIPITATION OR FOG.

ILZ001-002-007-009-015-016-024-272000-
NORTHWEST ILLINOIS

CITY           SKY/WX    TMP DP  RH WIND       PRES   REMARKS
MOLINE         CLOUDY    79  63  57 N3        30.16S HX  80
STERLING*      PTSUNNY   81  63  54 NE6       30.16S HX  82
$$

ILZ003-004-008-010-011-017-018-272000-
NORTH CENTRAL ILLINOIS

CITY           SKY/WX    TMP DP  RH WIND       PRES   REMARKS
ROCKFORD       CLOUDY    79  58  48 NW6       30.17S HX  80
$$

ILZ005-006-012>014-019>023-272000-
NORTHEAST ILLINOIS

CITY           SKY/WX    TMP DP  RH WIND       PRES   REMARKS
CHICAGO-OHARE  PTSUNNY   80  61  52 E9        30.13F HX  81
CHICAGO-MIDWAY PTSUNNY   80  64  58 VRB6      30.13F HX  82
AURORA         PTSUNNY   81  62  52 CALM      30.14F HX  82
WAUKEGAN       MOSUNNY   74  63  68 NE7       30.15F
DUPAGE AIRPORT SUNNY     84  60  44 VRB3      30.14S HX  84
WHEELING       MOSUNNY   78  65  63 NE8       30.16S HX  80
NORTHERLY ISL    N/A     73  64  73 NE10        N/A
$$

LMZ740>746-272000-
SOUTHERN LAKE MICHIGAN

STATION/POSITION SKY/WX   TEMP    WIND        PRES    VSBY  WAVE
                          AIR SEA DIR/SP/G                  HT/PER
                          (F)     (DEG/KT/KT) (MB)    (MI)  (FT/S)
SOUTHERN BUOY              67 70   50/  6/  8 1021.6S         0
WAUKEGAN HARBOR            69      40/ 10/ 11   N/A
HARRISON CRIB              70      30/  6/  7   N/A
BURNHAM HARBOR             74      30/  8       N/A
CALUMET HARBOR             72      30/  5/ 10 1019.8R
MICHIGAN CITY              70     350/ 13/ 14   N/A
MICHIGAN CITY 6N           71 74   10/ 10/ 12   N/A           1/ 2
ST. JOSEPH                 70 74  350/ 14/ 16   N/A           2/ 2
$$

ILZ025>027-034>036-040-047-049-050-058-095>099-272000-
WEST-CENTRAL ILLINOIS

CITY           SKY/WX    TMP DP  RH WIND       PRES   REMARKS
QUINCY         PTSUNNY   81  72  74 N13       30.13F HX  85
MACOMB*        CLOUDY    79  70  74 N3        30.17S HX  82
$$

ILZ028>032-037-038-041>044-048-051>054-059>061-272000-
CENTRAL ILLINOIS

CITY           SKY/WX    TMP DP  RH WIND       PRES   REMARKS
DECATUR        CLOUDY    85  74  69 CALM      30.12S HX  92
PEORIA         CLOUDY    83  67  58 NW5       30.13S HX  85
SPRINGFIELD    CLOUDY    85  74  69 N6        30.11F HX  92
TAYLORVILLE    NOT AVBL
$$

ILZ033-039-045-046-055>057-062-063-272000-
EAST-CENTRAL ILLINOIS

CITY           SKY/WX    TMP DP  RH WIND       PRES   REMARKS
CHAMPAIGN      PTSUNNY   87  73  62 VRB3      30.11F HX  94
MATTOON        CLOUDY    85  74  69 N7        30.10S HX  92
$$

ILZ079-100>102-272000-
SOUTHWEST ILLINOIS

CITY           SKY/WX    TMP DP  RH WIND       PRES   REMARKS
ALTON          PTSUNNY   90  73  58 VRB5      30.09F HX  98
BELLEVILLE     SUNNY     91  75  58 W5        30.07F HX 102
$$

ILZ064>066-069>071-074>076-080>082-084>086-088>090-092>094-272000-
SOUTH-CENTRAL ILLINOIS

CITY           SKY/WX    TMP DP  RH WIND       PRES   REMARKS
CARBONDALE     SUNNY     91  70  49 CALM      30.07F HX  96
MARION         MOSUNNY   93  70  46 SE6       30.08F HX  99
MT. VERNON     PTSUNNY   91  75  59 NE5       30.08F HX 102
SALEM*         MOSUNNY   91  77  64 NW3       30.09F HX 104
$$

ILZ067-068-072-073-078-083-087-091-272000-
SOUTHEAST ILLINOIS

CITY           SKY/WX    TMP DP  RH WIND       PRES   REMARKS
LAWRENCEVILLE  MOSUNNY   89  77  67 NW8       30.07F HX 101
HARRISBURG*    SUNNY    N/A N/A N/A CALM      30.09S
$$

ABBREVIATIONS USED IN REMARKS
   TC - TEMPERATURE IN CELSIUS
  WCI - WIND CHILL INDEX
   HX - HEAT INDEX
  VSB - VISIBILITY
$$



USA.gov is the U.S. government's official web portal to all federal, state and local government web resources and services.